This demonstration page uses our WeatherBlox Daily Observations layout. Learn more.

Left ArrowRight Arrow

31.84235, -102.49876

Hourly Observations for May 26, 2022

Temp ( °F °C ) Dew Point ( °F °C ) Humidity (%) Winds ( mph kmh ) Pressure ( in mb ) Visibility ( mi km ) Precip ( " mm )
12:53 am 00:53 Clear 63 17.2 38 3.3 40 40 S 3 6 29.91 1013 10 16 0.00 0.00
1:53 am 01:53 Clear 64 17.8 37 2.8 37 37 S 5 7 29.91 1013 10 16 0.00 0.00
2:53 am 02:53 Clear 62 16.7 36 2.2 38 38 SSE 5 7 29.91 1013 10 16 0.00 0.00
3:53 am 03:53 Clear 61 16.1 36 2.2 39 39 SSE 6 9 29.90 1013 10 16 0.00 0.00
4:53 am 04:53 Clear 60 15.6 36 2.2 41 41 S 6 9 29.91 1013 10 16 0.00 0.00
5:53 am 05:53 Clear 60 15.6 36 2.2 41 41 S 6 9 29.91 1013 10 16 0.00 0.00
6:53 am 06:53 Sunny 60 15.6 36 2.2 41 41 S 6 9 29.93 1014 10 16 0.00 0.00
7:53 am 07:53 Sunny 64 17.8 37 2.8 37 37 SSE 6 9 29.94 1014 10 16 0.00 0.00
8:53 am 08:53 Sunny 70 21.1 38 3.3 31 31 S 12 19 29.96 1015 10 16 0.00 0.00
9:53 am 09:53 Sunny 77 25 39 3.9 26 26 S 15 24 29.95 1014 10 16 0.00 0.00
10:53 am 10:53 Sunny 80 26.7 35 1.7 20 20 S 20 31 29.96 1014 10 16 0.00 0.00
11:53 am 11:53 Sunny 83 28.3 36 2.2 19 19 S 15 24 29.95 1014 10 16 0.00 0.00
12:53 pm 12:53 Sunny 85 29.4 37 2.8 18 18 SE 12 19 29.94 1014 10 16 0.00 0.00
1:53 pm 13:53 Sunny 86 30 36 2.2 17 17 S 7 11 29.92 1013 10 16 0.00 0.00
2:53 pm 14:53 Sunny 88 31.1 34 1.1 15 15 S 3 6 29.90 1013 10 16 0.00 0.00
3:53 pm 15:53 Sunny 92 33.3 34 1.1 13 13 NE 8 13 29.87 1012 10 16 0.00 0.00
4:53 pm 16:53 Sunny 92 33.3 34 1.1 13 13 VRB 6 9 29.85 1011 10 16 0.00 0.00
5:53 pm 17:53 Sunny 94 34.4 33 0.6 12 12 VRB 5 7 29.84 1011 10 16 0.00 0.00
6:53 pm 18:53 Sunny 93 33.9 33 0.6 12 12 E 8 13 29.83 1010 10 16 0.00 0.00
7:53 pm 19:53 Sunny 91 32.8 33 0.6 13 13 ENE 14 22 29.84 1011 10 16 0.00 0.00
8:53 pm 20:53 Clear 85 29.4 34 1.1 16 16 ENE 8 13 29.87 1011 10 16 0.00 0.00
9:53 pm 21:53 Clear 80 26.7 35 1.7 20 20 ENE 9 15 29.88 1012 10 16 0.00 0.00
10:53 pm 22:53 Clear 76 24.4 35 1.7 23 23 E 10 17 29.91 1013 10 16 0.00 0.00
11:53 pm 23:53 Clear 74 23.3 36 2.2 25 25 ESE 8 13 29.92 1013 10 16 0.00 0.00

Powered by AerisWeather